Tracking 28052 objects as of 21-Sep-2023
HD Live streaming from Space Station
objects crossing your sky now

STARLINK-4287

Track STARLINK-4287 now!
10-day predictions
STARLINK-4287 is classified as:


NORAD ID: 53020
Int'l Code: 2022-076AL
Perigee: 546.1 km
Apogee: 547.8 km
Inclination: 53.2 °
Period: 95.4 minutes
Semi major axis: 6917 km
RCS: Unknown
Launch date: July 7, 2022
Source: United States (US)
Launch site: AIR FORCE EASTERN TEST RANGE (AFETR)
Your satellite tracking list
Your tracking list is empty




NASA's NSSDC Master Catalog

Two Line Element Set (TLE):
1 53020U 22076AL  23264.02405440 -.00003470  00000-0 -20014-3 0  9999
2 53020  53.2159 167.3657 0001206 102.5126 257.6001 15.08826004 67488
Source of the keplerian elements: AFSPC